Home > Weather > San Pedro Sula > Past weeks

Flag for Honduras Past Weather in San Pedro Sula, Honduras — Yesterday and Last 2 Weeks

Now
95 °F

Partly sunny.


Feels Like: 113 °F
Forecast: 78 / 96 °F
Wind: 16 mph from North

Location: La Mesa San Pedro Sula

Current Time: May 28, 2016 at 2:16:47 PM

Latest Report: May 28, 2016 at 2:00 PM


Visibility: N/A

Pressure: 29.83 "Hg

Humidity: 60%

Dew Point: 79 °F

Location of San Pedro SulaLocation

Past Weather in San Pedro Sula — Graph

°F

San Pedro Sula Temperature Yesterday

Maximum temperature yesterday: 97 °F (at 1:00 PM)
Minimum temperature yesterday: 75 °F (at 4:00 AM)
Average temperature yesterday: 86 °F

High & Low Weather Summary for the Past Weeks

 TemperatureHumidityPressure
High100 °F (May 20, 12:00 PM)100% (May 13, 10:00 PM)30.09 "Hg (May 13, 10:00 PM)
Low75 °F (May 15, 4:00 AM)30% (May 17, 3:00 PM)29.71 "Hg (May 18, 4:00 PM)
Average86 °F81%29.88 "Hg
* Reported May 13 1:00 PM — May 28 1:00 PM, San Pedro Sula, Weather by CustomWeather, © 2016

Note: Actual official high and low records may vary slightly from our data, if they occured in-between our weather recording intervals... More about our weather records

Advertising

San Pedro Sula Weather History for the Previous 24 Hours

Scroll right to see more
 ConditionsComfort  
Time TempWeatherWind HumidityBarometerVisibility
1:00 PM
Sat, May 28
99 °FBroken clouds.14 mph53%N/AN/A
12:00 PM99 °FBroken clouds.6 mph50%29.83 "HgN/A
11:00 AM97 °FPartly sunny.3 mph50%29.83 "HgN/A
10:00 AM93 °FPartly sunny.7 mph59%29.86 "HgN/A
9:00 AM90 °FPartly sunny.5 mph67%29.89 "HgN/A
8:00 AM84 °FPartly sunny.7 mph84%29.86 "HgN/A
7:00 AM81 °FPartly sunny.3 mph89%29.86 "HgN/A
6:00 AM77 °FPartly sunny.3 mph100%29.86 "HgN/A
5:00 AM75 °FPassing clouds.3 mph100%29.83 "HgN/A
4:00 AM77 °FPassing clouds.2 mph100%29.83 "HgN/A
3:00 AM77 °FPassing clouds.No wind100%29.83 "HgN/A
2:00 AM79 °FPassing clouds.No wind100%29.83 "HgN/A
1:00 AM81 °FPassing clouds.3 mph94%29.83 "HgN/A
12:00 AM81 °FPassing clouds.No wind94%29.83 "HgN/A
11:00 PM
Fri, May 27
81 °FPassing clouds.3 mph94%29.83 "HgN/A
10:00 PM82 °FPassing clouds.No wind89%29.83 "HgN/A
9:00 PM82 °FPassing clouds.7 mph89%29.80 "HgN/A
8:00 PM82 °FPassing clouds.9 mph89%29.80 "HgN/A
7:00 PM84 °FPassing clouds.14 mph84%29.77 "HgN/A
6:00 PM86 °FPartly sunny.14 mph75%29.74 "HgN/A
5:00 PM90 °FPartly sunny.17 mph75%29.74 "HgN/A
4:00 PM93 °FScattered clouds.18 mph63%29.71 "HgN/A
3:00 PM95 °FScattered clouds.16 mph53%29.74 "HgN/A
2:00 PM97 °FBroken clouds.13 mph50%29.74 "HgN/A
Weather by CustomWeather, © 2016

See weather overviewHow to use our weather pages